| time (UTC) | temp F | wind direction | speed MPH | gust MPH | rain 1hr in | rain 24hr in | rain mn in | humidity % | barometer mb |
| 20260505114902 | 59 | 30 | 0.0 | 2.0 | 0.02 | 0.13 | 0.13 | 82 | 1015.2 |
| 20260505114403 | 59 | 245 | 0.0 | 2.0 | 0.02 | 0.13 | 0.13 | 81 | 1015.2 |
| 20260505113402 | 60 | 248 | 0.0 | 1.0 | 0.01 | 0.12 | 0.12 | 82 | 1015.4 |
| 20260505112902 | 60 | 71 | 0.0 | 1.0 | 0.01 | 0.12 | 0.12 | 82 | 1015.4 |
| 20260505112402 | 60 | 74 | 0.0 | 1.0 | 0.01 | 0.12 | 0.12 | 81 | 1015.2 |
| 20260505111903 | 59 | 247 | 0.0 | 1.0 | 0.02 | 0.12 | 0.12 | 82 | 1015.2 |
| 20260505111402 | 59 | 249 | 0.0 | 2.0 | 0.03 | 0.12 | 0.12 | 86 | 1015.2 |
| 20260505110902 | 59 | 252 | 0.0 | 2.0 | 0.03 | 0.12 | 0.12 | 87 | 1015.6 |
| 20260505110403 | 59 | 250 | 1.0 | 2.0 | 0.04 | 0.12 | 0.12 | 86 | 1015.2 |
| 20260505101902 | 59 | 71 | 0.0 | 0.0 | 0.05 | 0.10 | 0.10 | 88 | 1015.8 |
| 20260505101403 | 59 | 97 | 0.0 | 1.0 | 0.04 | 0.09 | 0.09 | 88 | 1015.8 |
| 20260505100403 | 59 | 43 | 0.0 | 1.0 | 0.03 | 0.08 | 0.08 | 88 | 1015.7 |
| 20260505095402 | 58 | 84 | 0.0 | 2.0 | 0.02 | 0.07 | 0.07 | 88 | 1015.6 |
| 20260505094905 | 58 | 67 | 0.0 | 2.0 | 0.02 | 0.06 | 0.06 | 87 | 1015.6 |
| 20260505093903 | 59 | 146 | 0.0 | 1.0 | 0.03 | 0.06 | 0.06 | 86 | 1015.4 |
| 20260505093403 | 59 | 247 | 1.0 | 1.0 | 0.03 | 0.06 | 0.06 | 87 | 1015.4 |
| 20260505092903 | 58 | 101 | 0.0 | 1.0 | 0.02 | 0.05 | 0.05 | 85 | 1015.6 |
| 20260505092403 | 59 | 77 | 0.0 | 1.0 | 0.02 | 0.05 | 0.05 | 86 | 1015.6 |
| 20260505091902 | 59 | 79 | 0.0 | 0.0 | 0.03 | 0.05 | 0.05 | 86 | 1015.6 |
| 20260505091404 | 59 | 114 | 0.0 | 0.0 | 0.03 | 0.05 | 0.05 | 87 | 1015.6 |
| 20260505090903 | 58 | 121 | 0.0 | 1.0 | 0.04 | 0.05 | 0.05 | 87 | 1015.2 |
| 20260505085902 | 58 | 76 | 0.0 | 1.0 | 0.04 | 0.05 | 0.05 | 88 | 1015.4 |
| 20260505085403 | 58 | 94 | 0.0 | 1.0 | 0.04 | 0.05 | 0.05 | 88 | 1015.2 |
| 20260505084903 | 58 | 236 | 1.0 | 1.0 | 0.03 | 0.04 | 0.04 | 87 | 1015.2 |
| 20260505084404 | 58 | 108 | 0.0 | 2.0 | 0.03 | 0.04 | 0.04 | 86 | 1015.3 |
| 20260505083902 | 57 | 115 | 0.0 | 2.0 | 0.02 | 0.03 | 0.03 | 86 | 1015.5 |
| 20260505083403 | 58 | 126 | 1.0 | 3.0 | 0.02 | 0.03 | 0.03 | 88 | 1015.3 |
| 20260505082905 | 57 | 68 | 1.0 | 3.0 | 0.02 | 0.03 | 0.03 | 87 | 1015.5 |
| 20260505082404 | 58 | 62 | 2.0 | 3.0 | 0.03 | 0.03 | 0.03 | 85 | 1015.4 |
| 20260505081403 | 58 | 62 | 1.0 | 2.0 | 0.02 | 0.02 | 0.02 | 86 | 1015.2 |
| 20260505080902 | 58 | 252 | 1.0 | 1.0 | 0.01 | 0.01 | 0.01 | 82 | 1015.2 |
| 20260505080403 | 58 | 206 | 0.0 | 1.0 | 0.01 | 0.01 | 0.01 | 86 | 1015.3 |
| 20260505075904 | 58 | 192 | 1.0 | 1.0 | 0.01 | 0.01 | 0.01 | 85 | 1015.6 |
| 20260505075402 | 58 | 105 | 0.0 | 1.0 | 0.01 | 0.01 | 0.01 | 84 | 1015.2 |
| 20260505074402 | 58 | 176 | 0.0 | 1.0 | 0.01 | 0.01 | 0.01 | 83 | 1015.2 |
| 20260505073903 | 58 | 176 | 0.0 | 2.0 | 0.01 | 0.01 | 0.01 | 82 | 1015.2 |
| 20260505073403 | 58 | 140 | 0.0 | 2.0 | 0.01 | 0.01 | 0.01 | 82 | 1015.2 |
| 20260505072902 | 59 | 276 | 1.0 | 1.0 | 0.01 | 0.01 | 0.01 | 81 | 1015.1 |
| 20260505072403 | 59 | 76 | 0.0 | 1.0 | 0.00 | 0.00 | 0.00 | 79 | 1015.2 |
| 20260505071902 | 59 | 220 | 0.0 | 1.0 | 0.00 | 0.00 | 0.00 | 78 | 1014.9 |
| 20260505071403 | 60 | 183 | 0.0 | 1.0 | 0.00 | 0.00 | 0.00 | 74 | 1014.9 |
| 20260505065903 | 61 | 59 | 0.0 | 1.0 | 0.00 | 0.00 | 0.00 | 64 | 1014.6 |
| 20260505065403 | 61 | 60 | 0.0 | 1.0 | 0.00 | 0.00 | 0.00 | 65 | 1014.6 |
| 20260505064402 | 61 | 72 | 1.0 | 1.0 | 0.00 | 0.00 | 0.00 | 65 | 1014.2 |
| 20260505063903 | 61 | 87 | 0.0 | 1.0 | 0.00 | 0.00 | 0.00 | 63 | 1014.6 |
| 20260505062902 | 60 | 237 | 0.0 | 2.0 | 0.00 | 0.00 | 0.00 | 63 | 1014.6 |
| 20260505062405 | 60 | 214 | 0.0 | 3.0 | 0.00 | 0.00 | 0.00 | 63 | 1014.6 |
| 20260505061902 | 60 | 207 | 1.0 | 3.0 | 0.00 | 0.00 | 0.00 | 65 | 1014.6 |
| 20260505060903 | 60 | 248 | 0.0 | 1.0 | 0.00 | 0.00 | 0.00 | 65 | 1014.6 |
| 20260505060402 | 60 | 79 | 0.0 | 0.0 | 0.00 | 0.00 | 0.00 | 65 | 1014.6 |
| 20260505055903 | 60 | 79 | 0.0 | 0.0 | 0.00 | 0.00 | 0.00 | 64 | 1014.2 |
| 20260505055403 | 60 | 82 | 0.0 | 1.0 | 0.00 | 0.00 | 0.00 | 63 | 1014.4 |
| 20260505054902 | 60 | 65 | 0.0 | 1.0 | 0.00 | 0.00 | 0.00 | 63 | 1014.4 |
| 20260505054402 | 60 | 61 | 0.0 | 0.0 | 0.00 | 0.00 | 0.00 | 64 | 1014.3 |
| 20260505053903 | 60 | 87 | 0.0 | 0.0 | 0.00 | 0.00 | 0.00 | 64 | 1014.5 |
| 20260505053403 | 60 | 86 | 0.0 | 0.0 | 0.00 | 0.00 | 0.00 | 63 | 1014.2 |
| 20260505052403 | 60 | 185 | 0.0 | 0.0 | 0.00 | 0.00 | 0.00 | 63 | 1014.4 |
| 20260505051903 | 60 | 176 | 0.0 | 0.0 | 0.00 | 0.00 | 0.00 | 62 | 1014.2 |
| 20260505051402 | 60 | 129 | 0.0 | 1.0 | 0.00 | 0.00 | 0.00 | 62 | 1014.6 |
| 20260505050903 | 60 | 223 | 0.0 | 1.0 | 0.00 | 0.00 | 0.00 | 61 | 1014.6 |
| 20260505041403 | 59 | 91 | 0.0 | 3.0 | 0.00 | 0.00 | 0.00 | 62 | 1014.2 |
| 20260505040402 | 59 | 57 | 0.0 | 2.0 | 0.00 | 0.00 | 0.00 | 62 | 1014.2 |
| 20260505035903 | 58 | 91 | 0.0 | 2.0 | 0.00 | 0.00 | 0.00 | 62 | 1014.2 |
| 20260505035403 | 58 | 129 | 2.0 | 2.0 | 0.00 | 0.00 | 0.00 | 62 | 1014.2 |
| 20260505034902 | 59 | 44 | 2.0 | 5.0 | 0.00 | 0.00 | 0.00 | 62 | 1014.2 |
| 20260505034402 | 58 | 77 | 0.0 | 5.0 | 0.00 | 0.00 | 0.00 | 62 | 1014.2 |
| 20260505033902 | 59 | 71 | 2.0 | 5.0 | 0.00 | 0.00 | 0.00 | 61 | 1014.5 |
| 20260505033403 | 60 | 31 | 0.0 | 2.0 | 0.00 | 0.00 | 0.00 | 59 | 1014.3 |
| 20260505032903 | 60 | 50 | 2.0 | 5.0 | 0.00 | 0.00 | 0.00 | 58 | 1014.6 |
| 20260505032402 | 60 | 48 | 1.0 | 5.0 | 0.00 | 0.00 | 0.00 | 57 | 1014.2 |
| 20260505031903 | 60 | 65 | 1.0 | 7.0 | 0.00 | 0.00 | 0.00 | 57 | 1014.4 |
| 20260505031403 | 60 | 72 | 1.0 | 7.0 | 0.00 | 0.00 | 0.00 | 56 | 1014.2 |
| 20260505030903 | 61 | 55 | 2.0 | 5.0 | 0.00 | 0.00 | 0.00 | 56 | 1014.5 |
| 20260505025903 | 61 | 151 | 0.0 | 2.0 | 0.00 | 0.00 | 0.00 | 55 | 1014.2 |
| 20260505025403 | 61 | 97 | 1.0 | 2.0 | 0.00 | 0.00 | 0.00 | 55 | 1014.4 |
| 20260505024904 | 60 | 91 | 1.0 | 2.0 | 0.00 | 0.00 | 0.00 | 56 | 1014.6 |
| 20260505024403 | 59 | 125 | 0.0 | 2.0 | 0.00 | 0.00 | 0.00 | 58 | 1014.7 |
| 20260505023903 | 59 | 68 | 0.0 | 1.0 | 0.00 | 0.00 | 0.00 | 60 | 1014.6 |
| 20260505023404 | 58 | 232 | 0.0 | 1.0 | 0.00 | 0.00 | 0.00 | 60 | 1014.9 |
| 20260505022902 | 58 | 219 | 0.0 | 1.0 | 0.00 | 0.00 | 0.00 | 62 | 1014.9 |
| 20260505022402 | 58 | 67 | 0.0 | 1.0 | 0.00 | 0.00 | 0.00 | 62 | 1014.9 |
| 20260505021403 | 58 | 342 | 0.0 | 0.0 | 0.00 | 0.00 | 0.00 | 60 | 1015.1 |
| 20260505020903 | 58 | 51 | 0.0 | 0.0 | 0.00 | 0.00 | 0.00 | 61 | 1014.9 |
| 20260505020404 | 58 | 238 | 0.0 | 1.0 | 0.00 | 0.00 | 0.00 | 61 | 1015.2 |
| 20260505015903 | 58 | 240 | 0.0 | 1.0 | 0.00 | 0.00 | 0.00 | 61 | 1015.2 |
| 20260505015403 | 58 | 250 | 1.0 | 1.0 | 0.00 | 0.00 | 0.00 | 61 | 1015.2 |
| 20260505014905 | 57 | 17 | 0.0 | 1.0 | 0.00 | 0.00 | 0.00 | 61 | 1015.2 |
| 20260505014403 | 58 | 62 | 0.0 | 1.0 | 0.00 | 0.00 | 0.00 | 62 | 1015.2 |
| 20260505013903 | 57 | 97 | 0.0 | 1.0 | 0.00 | 0.00 | 0.00 | 61 | 1015.2 |
| 20260505013404 | 57 | 97 | 0.0 | 1.0 | 0.00 | 0.00 | 0.00 | 63 | 1015.2 |
| 20260505012402 | 57 | 100 | 0.0 | 1.0 | 0.00 | 0.00 | 0.00 | 62 | 1015.2 |
| 20260505011903 | 57 | 228 | 0.0 | 1.0 | 0.00 | 0.00 | 0.00 | 63 | 1015.3 |
| 20260505011405 | 57 | 242 | 0.0 | 1.0 | 0.00 | 0.00 | 0.00 | 64 | 1015.6 |
| 20260505010903 | 58 | 246 | 0.0 | 1.0 | 0.00 | 0.00 | 0.00 | 63 | 1015.6 |
| 20260505010402 | 58 | 308 | 0.0 | 0.0 | 0.00 | 0.00 | 0.00 | 63 | 1015.6 |
| 20260505005902 | 58 | 307 | 0.0 | 1.0 | 0.00 | 0.00 | 0.00 | 62 | 1015.6 |
| 20260505005402 | 58 | 303 | 0.0 | 1.0 | 0.00 | 0.00 | 0.00 | 62 | 1015.8 |
| 20260505004403 | 58 | 250 | 0.0 | 1.0 | 0.00 | 0.00 | 0.00 | 63 | 1015.9 |
| 20260505003902 | 58 | 248 | 0.0 | 1.0 | 0.00 | 0.00 | 0.00 | 62 | 1015.9 |
| 20260505003402 | 58 | 169 | 0.0 | 0.0 | 0.00 | 0.00 | 0.00 | 62 | 1016.0 |
| 20260505002903 | 58 | 218 | 0.0 | 0.0 | 0.00 | 0.00 | 0.00 | 61 | 1016.3 |
| 20260505002403 | 58 | 223 | 0.0 | 0.0 | 0.00 | 0.00 | 0.00 | 62 | 1016.3 |
| 20260505001903 | 57 | 246 | 0.0 | 0.0 | 0.00 | 0.00 | 0.00 | 61 | 1016.3 |
| 20260505001404 | 57 | 45 | 0.0 | 0.0 | 0.00 | 0.00 | 0.00 | 63 | 1016.3 |
| 20260505000903 | 58 | 48 | 0.0 | 0.0 | 0.00 | 0.00 | 0.00 | 63 | 1016.6 |
| 20260505000402 | 58 | 47 | 0.0 | 0.0 | 0.00 | 0.00 | 0.00 | 61 | 1016.3 |
| 20260504235903 | 58 | 48 | 0.0 | 1.0 | 0.00 | 0.00 | 0.00 | 60 | 1016.3 |
| 20260504235403 | 58 | 64 | 0.0 | 1.0 | 0.00 | 0.00 | 0.00 | 62 | 1016.5 |
| 20260504234402 | 58 | 49 | 0.0 | 1.0 | 0.00 | 0.00 | 0.00 | 62 | 1016.6 |
| 20260504233903 | 58 | 50 | 0.0 | 1.0 | 0.00 | 0.00 | 0.00 | 61 | 1016.4 |
| 20260504233403 | 58 | 20 | 0.0 | 1.0 | 0.00 | 0.00 | 0.00 | 61 | 1016.6 |
| 20260504232903 | 58 | 64 | 0.0 | 1.0 | 0.00 | 0.00 | 0.00 | 61 | 1016.6 |
| 20260504232405 | 58 | 264 | 0.0 | 0.0 | 0.00 | 0.00 | 0.00 | 61 | 1016.9 |
| 20260504231403 | 58 | 38 | 0.0 | 1.0 | 0.00 | 0.00 | 0.00 | 60 | 1016.6 |
| 20260504230902 | 58 | 45 | 0.0 | 1.0 | 0.00 | 0.00 | 0.00 | 61 | 1016.8 |
| 20260504230402 | 59 | 47 | 0.0 | 1.0 | 0.00 | 0.00 | 0.00 | 61 | 1016.9 |
| 20260504225902 | 59 | 268 | 0.0 | 0.0 | 0.00 | 0.00 | 0.00 | 60 | 1016.6 |
| 20260504225403 | 59 | 338 | 0.0 | 1.0 | 0.00 | 0.00 | 0.00 | 60 | 1016.9 |
| 20260504224402 | 59 | 268 | 0.0 | 1.0 | 0.00 | 0.00 | 0.00 | 60 | 1016.9 |
| 20260504223903 | 59 | 71 | 0.0 | 1.0 | 0.00 | 0.00 | 0.00 | 60 | 1016.9 |
| 20260504222903 | 60 | 74 | 0.0 | 0.0 | 0.00 | 0.00 | 0.00 | 59 | 1016.9 |
| 20260504222403 | 60 | 83 | 0.0 | 0.0 | 0.00 | 0.00 | 0.00 | 58 | 1016.9 |
| 20260504221903 | 60 | 169 | 0.0 | 0.0 | 0.00 | 0.00 | 0.00 | 58 | 1016.9 |
| 20260504221403 | 60 | 250 | 0.0 | 0.0 | 0.00 | 0.00 | 0.00 | 59 | 1016.9 |
| 20260504220905 | 60 | 251 | 0.0 | 0.0 | 0.00 | 0.00 | 0.00 | 59 | 1016.9 |
| 20260504220403 | 60 | 65 | 0.0 | 1.0 | 0.00 | 0.00 | 0.00 | 58 | 1017.0 |
| 20260504215903 | 60 | 66 | 0.0 | 1.0 | 0.00 | 0.00 | 0.00 | 58 | 1016.9 |
| 20260504215402 | 60 | 67 | 0.0 | 1.0 | 0.00 | 0.00 | 0.00 | 58 | 1016.9 |
| 20260504214902 | 61 | 38 | 0.0 | 0.0 | 0.00 | 0.00 | 0.00 | 57 | 1016.9 |
| 20260504214403 | 61 | 44 | 0.0 | 1.0 | 0.00 | 0.00 | 0.00 | 57 | 1016.9 |
| 20260504213903 | 61 | 61 | 0.0 | 1.0 | 0.00 | 0.00 | 0.00 | 57 | 1016.9 |
| 20260504213403 | 61 | 73 | 0.0 | 1.0 | 0.00 | 0.00 | 0.00 | 57 | 1017.2 |
| 20260504212903 | 61 | 196 | 0.0 | 0.0 | 0.00 | 0.00 | 0.00 | 57 | 1017.2 |
| 20260504212404 | 61 | 184 | 0.0 | 1.0 | 0.00 | 0.00 | 0.00 | 56 | 1017.3 |
| 20260504211902 | 61 | 253 | 0.0 | 1.0 | 0.00 | 0.00 | 0.00 | 57 | 1017.3 |
| 20260504211404 | 62 | 257 | 0.0 | 1.0 | 0.00 | 0.00 | 0.00 | 56 | 1017.3 |
| 20260504210903 | 61 | 71 | 0.0 | 1.0 | 0.00 | 0.00 | 0.00 | 56 | 1017.3 |
| 20260504210404 | 62 | 75 | 0.0 | 1.0 | 0.00 | 0.00 | 0.00 | 56 | 1017.3 |
| 20260504205402 | 62 | 275 | 0.0 | 0.0 | 0.00 | 0.00 | 0.00 | 56 | 1017.0 |
| 20260504204903 | 62 | 276 | 0.0 | 0.0 | 0.00 | 0.00 | 0.00 | 55 | 1017.2 |
| 20260504204403 | 62 | 292 | 0.0 | 0.0 | 0.00 | 0.00 | 0.00 | 55 | 1017.3 |
| 20260504203904 | 63 | 316 | 0.0 | 1.0 | 0.00 | 0.00 | 0.00 | 55 | 1017.3 |
| 20260504203403 | 63 | 57 | 0.0 | 1.0 | 0.00 | 0.00 | 0.00 | 54 | 1017.1 |
| 20260504202903 | 63 | 121 | 0.0 | 0.0 | 0.00 | 0.00 | 0.00 | 53 | 1017.3 |
| 20260504202403 | 63 | 176 | 0.0 | 0.0 | 0.00 | 0.00 | 0.00 | 53 | 1017.2 |
| 20260504201904 | 64 | 174 | 0.0 | 0.0 | 0.00 | 0.00 | 0.00 | 53 | 1017.2 |
| 20260504201406 | 64 | 185 | 0.0 | 1.0 | 0.00 | 0.00 | 0.00 | 53 | 1016.9 |
| 20260504200903 | 64 | 113 | 0.0 | 1.0 | 0.00 | 0.00 | 0.00 | 53 | 1016.9 |
| 20260504200404 | 64 | 68 | 1.0 | 1.0 | 0.00 | 0.00 | 0.00 | 52 | 1016.9 |
| 20260504195903 | 64 | 195 | 0.0 | 1.0 | 0.00 | 0.00 | 0.00 | 52 | 1016.8 |
| 20260504195402 | 64 | 240 | 0.0 | 1.0 | 0.00 | 0.00 | 0.00 | 52 | 1016.9 |
| 20260504194904 | 64 | 300 | 0.0 | 1.0 | 0.00 | 0.00 | 0.00 | 52 | 1016.9 |
| 20260504194404 | 65 | 76 | 0.0 | 0.0 | 0.00 | 0.00 | 0.00 | 51 | 1016.6 |
| 20260504193905 | 65 | 76 | 0.0 | 0.0 | 0.00 | 0.00 | 0.00 | 51 | 1016.6 |
| 20260504192903 | 65 | 144 | 0.0 | 1.0 | 0.00 | 0.00 | 0.00 | 50 | 1016.6 |
| 20260504192404 | 66 | 174 | 0.0 | 2.0 | 0.00 | 0.00 | 0.00 | 50 | 1016.6 |
| 20260504191903 | 66 | 52 | 0.0 | 2.0 | 0.00 | 0.00 | 0.00 | 50 | 1016.5 |
| 20260504191404 | 66 | 72 | 0.0 | 1.0 | 0.00 | 0.00 | 0.00 | 49 | 1016.6 |
| 20260504190903 | 66 | 174 | 0.0 | 1.0 | 0.00 | 0.00 | 0.00 | 49 | 1016.6 |
| 20260504185903 | 67 | 40 | 0.0 | 1.0 | 0.00 | 0.00 | 0.00 | 49 | 1016.3 |
| 20260504184903 | 68 | 193 | 0.0 | 0.0 | 0.00 | 0.00 | 0.00 | 47 | 1016.1 |
| 20260504184403 | 69 | 96 | 0.0 | 1.0 | 0.00 | 0.00 | 0.00 | 46 | 1016.3 |
| 20260504183404 | 70 | 56 | 1.0 | 3.0 | 0.00 | 0.00 | 0.00 | 46 | 1016.3 |
| 20260504182903 | 71 | 73 | 1.0 | 5.0 | 0.00 | 0.00 | 0.00 | 42 | 1015.9 |
| 20260504182403 | 71 | 225 | 2.0 | 7.0 | 0.00 | 0.00 | 0.00 | 41 | 1015.9 |
| 20260504181403 | 71 | 243 | 2.0 | 7.0 | 0.00 | 0.00 | 0.00 | 41 | 1015.9 |
| 20260504180903 | 71 | 209 | 1.0 | 8.0 | 0.00 | 0.00 | 0.00 | 42 | 1015.9 |
| 20260504180404 | 71 | 250 | 2.0 | 8.0 | 0.00 | 0.00 | 0.00 | 40 | 1015.9 |
| 20260504175903 | 71 | 234 | 2.0 | 8.0 | 0.00 | 0.00 | 0.00 | 40 | 1015.9 |
| 20260504175403 | 71 | 217 | 1.0 | 2.0 | 0.00 | 0.00 | 0.00 | 40 | 1015.9 |
| 20260504174903 | 72 | 226 | 1.0 | 2.0 | 0.00 | 0.00 | 0.00 | 40 | 1015.9 |
| 20260504174403 | 72 | 226 | 0.0 | 2.0 | 0.00 | 0.00 | 0.00 | 40 | 1015.6 |
| 20260504173902 | 73 | 99 | 0.0 | 3.0 | 0.00 | 0.00 | 0.00 | 39 | 1015.6 |
| 20260504172903 | 73 | 233 | 2.0 | 3.0 | 0.00 | 0.00 | 0.00 | 38 | 1015.5 |
| 20260504172403 | 73 | 261 | 2.0 | 3.0 | 0.00 | 0.00 | 0.00 | 38 | 1015.5 |
| 20260504171403 | 74 | 247 | 1.0 | 3.0 | 0.00 | 0.00 | 0.00 | 39 | 1015.6 |
| 20260504170903 | 74 | 258 | 1.0 | 3.0 | 0.00 | 0.00 | 0.00 | 38 | 1015.2 |
| 20260504170402 | 74 | 239 | 0.0 | 5.0 | 0.00 | 0.00 | 0.00 | 39 | 1015.4 |
| 20260504160403 | 76 | 229 | 2.0 | 7.0 | 0.00 | 0.00 | 0.00 | 38 | 1015.2 |
| 20260504150903 | 77 | 233 | 2.0 | 3.0 | 0.00 | 0.00 | 0.00 | 37 | 1015.3 |
| 20260504150404 | 77 | 245 | 2.0 | 5.0 | 0.00 | 0.00 | 0.00 | 37 | 1015.2 |
| 20260504140903 | 79 | 267 | 1.0 | 7.0 | 0.00 | 0.00 | 0.00 | 33 | 1015.7 |
| 20260504140403 | 79 | 213 | 3.0 | 7.0 | 0.00 | 0.00 | 0.00 | 33 | 1015.6 |
| 20260504130403 | 79 | 274 | 3.0 | 7.0 | 0.00 | 0.00 | 0.00 | 33 | 1015.9 |